Home > Weather > Mutsamudu > Past weeks

Flag for Comoros Weather for the Past 2 Weeks in Mutsamudu, Comoros

Now
82 °F

Passing clouds.


Feels Like: 88 °F
Forecast: 80 / 82 °F
Wind: 13 mph from West

Location: Dzaoudzi / Pamanzi Mayotte

Current Time: Feb 9, 2016 at 12:26:51 AM

Latest Report: Feb 9, 2016 at 12:00 AM


Visibility: N/A

Pressure: 29.80 "Hg

Humidity: 74%

Dew point: 73 °F

Location of MutsamuduLocation

Historic Weather in Mutsamudu — Graph

°F

Mutsamudu Temperature Yesterday

Maximum temperature yesterday: 86 °F (at 10:00 AM)
Minimum temperature yesterday: 77 °F (at 1:00 PM)
Average temperature yesterday: 82 °F

High & Low Weather Summary for the Past Weeks

 TemperatureHumidityPressure
High90 °F (Jan 26, 9:30 AM)94% (Jan 26, 4:00 PM)29.92 "Hg (Jan 26, 4:00 PM)
Low75 °F (Feb 3, 7:00 PM)62% (Jan 25, 5:00 PM)29.71 "Hg (Feb 1, 3:30 AM)
Average81 °F81%29.82 "Hg
* Reported Jan 24 11:00 PM — Feb 8 11:00 PM, Mutsamudu, Weather by CustomWeather, © 2016

Note: Actual official high and low records may vary slightly from our data, if they occured in-between our weather recording intervals... More about our weather records

Advertising

Mutsamudu Weather History for the Previous 24 Hours

 ConditionsComfort  
Time TempWeatherWind HumidityBarometerVisibility
11:00 PM
Mon, Feb 8
82 °FMostly cloudy.10 mph74%29.80 "HgN/A
10:30 PM82 °FMostly cloudy.13 mph74%29.80 "HgN/A
10:00 PM82 °FPassing clouds.13 mph74%29.80 "HgN/A
9:30 PM82 °FPassing clouds.14 mph74%29.80 "HgN/A
9:00 PM82 °FOvercast.12 mph74%29.80 "HgN/A
8:30 PM82 °FOvercast.12 mph74%29.80 "HgN/A
8:00 PM82 °FWarm.10 mph74%29.80 "HgN/A
7:30 PM82 °FWarm.9 mph74%29.77 "HgN/A
7:00 PM82 °FWarm.10 mph74%29.77 "HgN/A
6:30 PM82 °FPassing clouds.10 mph79%29.77 "HgN/A
6:00 PM84 °FPartly sunny.12 mph74%29.77 "HgN/A
5:30 PM84 °FPartly sunny.15 mph74%29.74 "HgN/A
5:00 PM84 °FPartly sunny.15 mph74%29.74 "HgN/A
4:30 PM84 °FPartly sunny.16 mph74%29.71 "HgN/A
4:00 PM84 °FPartly sunny.16 mph74%29.71 "HgN/A
3:30 PM84 °FBroken clouds.12 mph74%29.71 "HgN/A
3:00 PM82 °FSprinkles. Partly sunny.18 mph74%29.74 "Hg5 mi
2:30 PM84 °FBroken clouds.13 mph79%29.74 "HgN/A
2:00 PM82 °FBroken clouds.13 mph79%29.74 "HgN/A
1:30 PM81 °FPartly sunny.10 mph79%29.74 "HgN/A
1:00 PM77 °FSprinkles. Partly sunny.24 mph79%29.77 "Hg2 mi
12:30 PM79 °FScattered showers. Partly sunny.12 mph89%29.77 "Hg5 mi
12:00 PM79 °FSprinkles. Partly sunny.20 mph89%29.77 "Hg4 mi
11:35 AM81 °FScattered showers. Partly sunny.21 mph84%29.77 "HgN/A
11:00 AM86 °FScattered showers. Broken clouds.17 mph75%29.77 "HgN/A
10:34 AM86 °FScattered clouds.21 mph70%29.77 "HgN/A
10:00 AM86 °FBroken clouds.18 mph75%29.77 "HgN/A
9:00 AM79 °FRain showers. Broken clouds.15 mph89%29.80 "HgN/A
8:30 AM79 °FSprinkles. Partly sunny.20 mph84%29.80 "HgN/A
8:00 AM81 °FPartly sunny.16 mph84%29.80 "HgN/A
7:30 AM84 °FScattered clouds.13 mph74%29.77 "HgN/A
7:00 AM82 °FScattered clouds.15 mph79%29.77 "HgN/A
6:30 AM82 °FScattered showers. Partly sunny.15 mph79%29.77 "HgN/A
6:04 AM82 °FPartly sunny.16 mph79%29.74 "HgN/A
5:30 AM82 °FPassing clouds.9 mph79%29.74 "HgN/A
5:00 AM81 °FPassing clouds.12 mph84%29.74 "HgN/A
4:30 AM81 °FPassing clouds.13 mph84%29.71 "HgN/A
4:00 AM82 °FPassing clouds.16 mph79%29.71 "HgN/A
3:00 AM81 °FPassing clouds.12 mph84%29.71 "HgN/A
2:00 AM81 °FWarm.13 mph84%29.74 "HgN/A
1:30 AM81 °FWarm.14 mph84%29.74 "HgN/A
1:00 AM81 °FWarm.15 mph79%29.74 "HgN/A
12:30 AM81 °FPassing clouds.14 mph79%29.77 "HgN/A
12:00 AM81 °FPassing clouds.16 mph84%29.77 "HgN/A
Weather by CustomWeather, © 2016

See weather overviewHow to use our weather pages